Tracking 17140 objects as of 1-July-2015
HD Live streaming from Space Station

SDS-4

Track SDS-4 now!
10-day predictions
SDS-4 is classified as:


NORAD ID: 38339
Int'l Code: 2012-025C
Perigee: 662.3 km
Apogee: 674.3 km
Inclination: 98.3 °
Period: 98.0 minutes
Semi major axis: 7039 km
RCS: 0.47 m2 (medium)
Launch date: May 17, 2012
Source: Japan (JPN)
Your satellite tracking list
Your tracking list is empty





NASA's NSSDC Master Catalog

Two Line Element Set (TLE):
1 38339U 12025C   15181.96373729  .00000200  00000-0  42064-4 0  9990
2 38339 098.3143 146.6729 0008508 030.1848 329.9846 14.69976066167218

Source of the keplerian elements: AFSPC

N2YO: 249